Flag for Philippines Weather past 2 weeks in Mabalacat, Philippines

Now
82 °F

Scattered clouds.


Feels Like: 89 °F
Forecast: 76 / 89 °F
Wind: 5 mph from South

Location: Clarkfield Pampanga International Airport

Current Time: Aug 31, 2014 at 8:29:22 AM

Latest Report: Aug 31, 2014 at 8:00 AM


Visibility: 5 mi

Pressure: 29.89 "Hg

Humidity: 79%

Dew point: 75 °F

Location of MabalacatLocation

Historic Weather in Mabalacat — Graph

°F

Mabalacat temperature yesterday

Maximum temperature yesterday: 84 °F (at 12:00 PM)
Minimum temperature yesterday: 75 °F (at 12:00 AM)
Average temperature yesterday: 80 °F

Past Weeks' High & Low Weather Summary

 TemperatureHumidityPressure
High91 °F (Aug 20, 1:00 PM)100% (Aug 16, 4:00 PM)29.98 "Hg (Aug 16, 4:00 PM)
Low72 °F (Aug 28, 2:00 PM)52% (Aug 20, 4:00 PM)29.74 "Hg (Aug 26, 4:00 PM)
Average79 °F88%29.85 "Hg
* Reported Aug 16 7:00 AM — Aug 31 7:00 AM, Mabalacat, Weather by CustomWeather, © 2014

Note: Actual official high and low records may vary slightly from our data, if they occured in-between our weather recording intervals... More about our weather records

Advertising

Mabalacat weather history for previous 24 hours

 ConditionsComfort  
Time TempWeatherWind HumidityBarometerVisibility
7:00 AM
Aug 31
77 °FPartly sunny.1 mph100%29.86 "Hg5 mi
6:00 AM77 °FPartly sunny.2 mph94%29.83 "HgN/A
5:00 AM77 °FPassing clouds.1 mph100%29.83 "HgN/A
4:00 AM77 °FPartly cloudy.3 mph100%29.83 "HgN/A
3:00 AM77 °FPartly cloudy.2 mph100%29.83 "HgN/A
2:00 AM77 °FPassing clouds.2 mph100%29.86 "HgN/A
1:00 AM79 °FPassing clouds.3 mph100%29.86 "HgN/A
12:00 AM79 °FPartly cloudy.2 mph94%29.89 "HgN/A
11:00 PM
Aug 30
79 °FSprinkles. Partly cloudy.2 mph94%29.89 "HgN/A
10:00 PM81 °FPartly cloudy.5 mph89%29.89 "HgN/A
9:00 PM81 °FPartly cloudy.2 mph89%29.86 "HgN/A
8:00 PM81 °FPartly cloudy.2 mph89%29.86 "HgN/A
7:00 PM81 °FPartly cloudy.2 mph89%29.83 "HgN/A
6:00 PM81 °FBroken clouds.3 mph89%29.80 "HgN/A
5:00 PM82 °FPartly sunny.5 mph84%29.80 "HgN/A
4:00 PM82 °FPartly sunny.2 mph84%29.80 "HgN/A
3:00 PM82 °FPartly sunny.6 mph79%29.80 "HgN/A
2:00 PM82 °FBroken clouds.6 mph84%29.83 "HgN/A
1:00 PM84 °FBroken clouds.5 mph74%29.83 "HgN/A
12:00 PM84 °FPartly sunny.7 mph70%29.86 "HgN/A
11:00 AM82 °FPartly sunny.3 mph79%29.86 "HgN/A
10:00 AM82 °FPartly sunny.2 mph79%29.86 "HgN/A
9:00 AM79 °FPartly sunny.5 mph84%29.86 "HgN/A
8:00 AM77 °FMore clouds than sun.5 mph94%29.86 "HgN/A
Weather by CustomWeather, © 2014

See weather overviewHow to use our weather pages